Time,TemperatureF,DewpointF,PressureIn,WindDirection,WindDirectionDegrees,WindSpeedMPH,WindSpeedGustMPH,Humidity,HourlyPrecipIn,Conditions,Clouds,dailyrainin,SoftwareType,DateUTC
2013-10-09 00:01:00,56.9,56.1,29.91,ESE,113,2.0,2.0,97,0.00,,,0.41,Wunderground v.1.15,2013-10-09 04:01:00,
2013-10-09 00:02:00,56.9,56.1,29.90,NE,40,2.0,2.0,97,0.00,,,0.41,Wunderground v.1.15,2013-10-09 04:02:00,
2013-10-09 00:04:00,56.9,56.1,29.90,ENE,71,1.0,3.0,97,0.00,,,0.41,Wunderground v.1.15,2013-10-09 04:04:00,
2013-10-09 00:09:00,56.9,56.1,29.90,East,85,2.0,10.0,97,0.00,,,0.41,Wunderground v.1.15,2013-10-09 04:09:00,
2013-10-09 00:11:00,56.9,56.1,29.90,East,93,2.0,10.0,97,0.00,,,0.41,Wunderground v.1.15,2013-10-09 04:11:00,
2013-10-09 00:12:00,56.9,56.1,29.90,ESE,107,2.0,10.0,97,0.00,,,0.41,Wunderground v.1.15,2013-10-09 04:12:00,
2013-10-09 00:17:00,56.9,56.1,29.89,NNE,26,1.0,3.0,97,0.00,,,0.41,Wunderground v.1.15,2013-10-09 04:17:00,
2013-10-09 00:19:00,56.9,56.1,29.89,NE,34,1.0,5.0,97,0.00,,,0.00,Wunderground v.1.15,2013-10-09 04:19:00,
2013-10-09 00:24:00,56.9,56.1,29.89,NNW,348,1.0,3.0,97,0.00,,,0.00,Wunderground v.1.15,2013-10-09 04:24:00,
2013-10-09 00:30:00,56.9,56.1,29.89,NE,46,1.0,3.0,97,0.00,,,0.00,Wunderground v.1.15,2013-10-09 04:30:00,
2013-10-09 00:36:00,56.9,56.1,29.89,North,5,2.0,4.0,97,0.00,,,0.00,Wunderground v.1.15,2013-10-09 04:36:00,
2013-10-09 00:41:00,56.9,56.1,29.89,ENE,74,1.0,6.0,97,0.00,,,0.00,Wunderground v.1.15,2013-10-09 04:41:00,
2013-10-09 00:46:00,56.9,56.1,29.89,NE,46,1.0,2.0,97,0.00,,,0.00,Wunderground v.1.15,2013-10-09 04:46:00,
2013-10-09 00:52:00,56.9,56.1,29.89,North,5,1.0,3.0,97,0.00,,,0.00,Wunderground v.1.15,2013-10-09 04:52:00,
2013-10-09 00:58:00,56.9,56.1,29.89,NW,305,1.0,1.0,97,0.00,,,0.00,Wunderground v.1.15,2013-10-09 04:58:00,
2013-10-09 01:04:00,56.9,56.1,29.89,ENE,74,1.0,2.0,97,0.00,,,0.00,Wunderground v.1.15,2013-10-09 05:04:00,
2013-10-09 01:09:00,56.9,56.1,29.89,East,89,1.0,3.0,97,0.00,,,0.00,Wunderground v.1.15,2013-10-09 05:09:00,
2013-10-09 01:15:00,56.7,55.9,29.89,ENE,67,1.0,1.0,97,0.00,,,0.00,Wunderground v.1.15,2013-10-09 05:15:00,
2013-10-09 01:20:00,56.7,55.9,29.88,NNW,340,1.0,2.0,97,0.00,,,0.00,Wunderground v.1.15,2013-10-09 05:20:00,
2013-10-09 01:25:00,56.7,55.9,29.88,NE,50,1.0,6.0,97,0.00,,,0.00,Wunderground v.1.15,2013-10-09 05:25:00,
2013-10-09 01:31:00,56.7,55.9,29.88,ENE,61,2.0,6.0,97,0.00,,,0.01,Wunderground v.1.15,2013-10-09 05:31:00,
2013-10-09 01:36:00,56.7,55.9,29.88,NE,42,1.0,7.0,97,0.00,,,0.01,Wunderground v.1.15,2013-10-09 05:36:00,
2013-10-09 01:41:00,56.7,55.9,29.88,NNE,32,2.0,9.0,97,0.00,,,0.01,Wunderground v.1.15,2013-10-09 05:41:00,
2013-10-09 01:47:00,56.7,55.9,29.89,WNW,294,2.0,3.0,97,0.00,,,0.01,Wunderground v.1.15,2013-10-09 05:47:00,
2013-10-09 01:53:00,56.7,55.9,29.89,ENE,62,1.0,4.0,97,0.00,,,0.01,Wunderground v.1.15,2013-10-09 05:53:00,
2013-10-09 01:58:00,56.7,55.9,29.89,NNE,16,1.0,4.0,97,0.00,,,0.01,Wunderground v.1.15,2013-10-09 05:58:00,
2013-10-09 02:04:00,56.7,55.9,29.89,NNW,343,2.0,2.0,97,0.00,,,0.01,Wunderground v.1.15,2013-10-09 06:04:00,
2013-10-09 02:09:00,56.7,55.9,29.89,NE,44,2.0,3.0,97,0.00,,,0.01,Wunderground v.1.15,2013-10-09 06:09:00,
2013-10-09 02:14:00,56.7,55.9,29.89,NNE,32,1.0,1.0,97,0.00,,,0.01,Wunderground v.1.15,2013-10-09 06:14:00,
2013-10-09 02:19:00,56.9,56.1,29.89,NW,321,2.0,3.0,97,0.00,,,0.01,Wunderground v.1.15,2013-10-09 06:19:00,
2013-10-09 02:24:00,56.9,56.1,29.89,NE,47,1.0,1.0,97,0.00,,,0.01,Wunderground v.1.15,2013-10-09 06:24:00,
2013-10-09 02:29:00,56.9,55.8,29.89,East,80,1.0,6.0,96,0.00,,,0.01,Wunderground v.1.15,2013-10-09 06:29:00,
2013-10-09 02:35:00,57.0,55.9,29.89,North,360,2.0,2.0,96,0.00,,,0.01,Wunderground v.1.15,2013-10-09 06:35:00,
2013-10-09 02:41:00,57.0,55.9,29.89,North,360,1.0,2.0,96,0.00,,,0.01,Wunderground v.1.15,2013-10-09 06:41:00,
2013-10-09 02:46:00,57.0,55.9,29.88,North,5,1.0,1.0,96,0.00,,,0.01,Wunderground v.1.15,2013-10-09 06:46:00,
2013-10-09 02:51:00,57.0,55.9,29.88,NNE,13,2.0,4.0,96,0.00,,,0.01,Wunderground v.1.15,2013-10-09 06:51:00,
2013-10-09 02:57:00,57.0,55.9,29.88,NE,51,2.0,6.0,96,0.00,,,0.01,Wunderground v.1.15,2013-10-09 06:57:00,
2013-10-09 03:03:00,57.2,56.1,29.88,ENE,57,1.0,1.0,96,0.00,,,0.01,Wunderground v.1.15,2013-10-09 07:03:00,
2013-10-09 03:08:00,57.2,56.1,29.88,NNE,20,1.0,3.0,96,0.00,,,0.01,Wunderground v.1.15,2013-10-09 07:08:00,
2013-10-09 03:14:00,57.2,56.1,29.88,NE,44,2.0,5.0,96,0.00,,,0.01,Wunderground v.1.15,2013-10-09 07:14:00,
2013-10-09 03:19:00,57.3,55.9,29.87,NNW,335,2.0,5.0,95,0.00,,,0.01,Wunderground v.1.15,2013-10-09 07:19:00,
2013-10-09 03:25:00,57.3,55.9,29.87,ENE,71,3.0,3.0,95,0.00,,,0.01,Wunderground v.1.15,2013-10-09 07:25:00,
2013-10-09 03:31:00,57.3,55.9,29.87,NNW,329,2.0,6.0,95,0.00,,,0.01,Wunderground v.1.15,2013-10-09 07:31:00,
2013-10-09 03:37:00,57.3,55.6,29.87,ENE,59,2.0,3.0,94,0.00,,,0.01,Wunderground v.1.15,2013-10-09 07:37:00,
2013-10-09 03:43:00,57.3,55.6,29.87,NW,317,1.0,1.0,94,0.00,,,0.01,Wunderground v.1.15,2013-10-09 07:43:00,
2013-10-09 03:48:00,57.2,55.5,29.87,East,96,2.0,5.0,94,0.00,,,0.01,Wunderground v.1.15,2013-10-09 07:48:00,
2013-10-09 03:54:00,57.2,55.5,29.87,SW,225,2.0,5.0,94,0.00,,,0.01,Wunderground v.1.15,2013-10-09 07:54:00,
2013-10-09 04:00:00,57.2,55.5,29.87,NNE,32,2.0,5.0,94,0.00,,,0.01,Wunderground v.1.15,2013-10-09 08:00:00,
2013-10-09 04:06:00,57.2,55.5,29.87,North,355,1.0,3.0,94,0.00,,,0.01,Wunderground v.1.15,2013-10-09 08:06:00,
2013-10-09 04:11:00,57.2,55.5,29.87,North,360,1.0,3.0,94,0.00,,,0.01,Wunderground v.1.15,2013-10-09 08:11:00,
2013-10-09 04:17:00,57.2,55.5,29.87,ENE,70,2.0,4.0,94,0.00,,,0.01,Wunderground v.1.15,2013-10-09 08:17:00,
2013-10-09 04:23:00,57.3,55.6,29.87,NE,49,1.0,2.0,94,0.00,,,0.01,Wunderground v.1.15,2013-10-09 08:23:00,
2013-10-09 04:28:00,57.3,55.6,29.87,NE,42,1.0,2.0,94,0.00,,,0.01,Wunderground v.1.15,2013-10-09 08:28:00,
2013-10-09 04:34:00,57.3,55.6,29.87,NE,38,2.0,6.0,94,0.00,,,0.01,Wunderground v.1.15,2013-10-09 08:34:00,
2013-10-09 04:40:00,57.3,55.6,29.87,NE,43,2.0,6.0,94,0.00,,,0.01,Wunderground v.1.15,2013-10-09 08:40:00,
2013-10-09 04:46:00,57.3,55.3,29.87,NNE,22,1.0,6.0,93,0.00,,,0.01,Wunderground v.1.15,2013-10-09 08:46:00,
2013-10-09 04:51:00,57.3,55.6,29.87,North,350,2.0,6.0,94,0.00,,,0.01,Wunderground v.1.15,2013-10-09 08:51:00,
2013-10-09 04:57:00,57.5,55.5,29.87,NE,53,2.0,4.0,93,0.00,,,0.01,Wunderground v.1.15,2013-10-09 08:57:00,
2013-10-09 05:03:00,57.5,55.5,29.86,NNE,26,2.0,3.0,93,0.00,,,0.01,Wunderground v.1.15,2013-10-09 09:03:00,
2013-10-09 05:08:00,57.3,55.3,29.86,East,94,1.0,3.0,93,0.00,,,0.01,Wunderground v.1.15,2013-10-09 09:08:00,
2013-10-09 05:14:00,57.3,55.3,29.86,East,96,1.0,4.0,93,0.00,,,0.01,Wunderground v.1.15,2013-10-09 09:14:00,
2013-10-09 05:19:00,57.3,55.3,29.86,ENE,57,1.0,4.0,93,0.00,,,0.01,Wunderground v.1.15,2013-10-09 09:19:00,
2013-10-09 05:25:00,57.3,55.3,29.86,East,92,1.0,3.0,93,0.00,,,0.01,Wunderground v.1.15,2013-10-09 09:25:00,
2013-10-09 05:30:00,57.2,55.2,29.86,NNW,348,1.0,3.0,93,0.00,,,0.01,Wunderground v.1.15,2013-10-09 09:30:00,
2013-10-09 05:36:00,57.2,55.2,29.87,ENE,77,1.0,3.0,93,0.00,,,0.01,Wunderground v.1.15,2013-10-09 09:36:00,
2013-10-09 05:42:00,57.2,55.2,29.87,NNE,24,1.0,3.0,93,0.00,,,0.01,Wunderground v.1.15,2013-10-09 09:42:00,
2013-10-09 05:48:00,57.2,55.2,29.87,NNW,342,1.0,1.0,93,0.00,,,0.01,Wunderground v.1.15,2013-10-09 09:48:00,
2013-10-09 05:53:00,57.3,55.3,29.88,North,9,1.0,1.0,93,0.00,,,0.01,Wunderground v.1.15,2013-10-09 09:53:00,
2013-10-09 05:59:00,57.5,55.5,29.88,NNE,19,1.0,3.0,93,0.00,,,0.01,Wunderground v.1.15,2013-10-09 09:59:00,
2013-10-09 06:05:00,57.5,55.5,29.88,NE,51,1.0,4.0,93,0.00,,,0.01,Wunderground v.1.15,2013-10-09 10:05:00,
2013-10-09 06:10:00,57.6,55.6,29.88,SW,234,1.0,4.0,93,0.00,,,0.01,Wunderground v.1.15,2013-10-09 10:10:00,
2013-10-09 06:16:00,57.8,55.5,29.89,NE,53,1.0,6.0,92,0.00,,,0.01,Wunderground v.1.15,2013-10-09 10:16:00,
2013-10-09 06:21:00,57.8,55.5,29.89,NNE,30,1.0,10.0,92,0.00,,,0.01,Wunderground v.1.15,2013-10-09 10:21:00,
2013-10-09 06:27:00,57.8,55.5,29.89,NNW,339,1.0,2.0,92,0.00,,,0.01,Wunderground v.1.15,2013-10-09 10:27:00,
2013-10-09 06:33:00,58.0,55.7,29.89,ENE,69,2.0,7.0,92,0.00,,,0.01,Wunderground v.1.15,2013-10-09 10:33:00,
2013-10-09 06:39:00,58.0,55.7,29.89,NNE,22,2.0,11.0,92,0.00,,,0.01,Wunderground v.1.15,2013-10-09 10:39:00,
2013-10-09 06:44:00,58.0,55.7,29.89,ENE,57,2.0,3.0,92,0.00,,,0.01,Wunderground v.1.15,2013-10-09 10:44:00,
2013-10-09 06:49:00,58.1,55.5,29.89,NNW,340,2.0,3.0,91,0.00,,,0.01,Wunderground v.1.15,2013-10-09 10:49:00,
2013-10-09 06:55:00,58.1,55.5,29.89,NNW,340,1.0,2.0,91,0.00,,,0.01,Wunderground v.1.15,2013-10-09 10:55:00,
2013-10-09 07:00:00,58.3,55.7,29.89,NNW,341,0.0,2.0,91,0.00,,,0.01,Wunderground v.1.15,2013-10-09 11:00:00,
2013-10-09 07:05:00,58.3,55.7,29.89,NNW,331,1.0,1.0,91,0.00,,,0.01,Wunderground v.1.15,2013-10-09 11:05:00,
2013-10-09 07:10:00,58.3,55.7,29.89,NNE,28,1.0,7.0,91,0.00,,,0.01,Wunderground v.1.15,2013-10-09 11:10:00,
2013-10-09 07:16:00,58.3,55.7,29.89,NNE,32,1.0,4.0,91,0.00,,,0.01,Wunderground v.1.15,2013-10-09 11:16:00,
2013-10-09 07:21:00,58.3,55.7,29.90,North,11,1.0,4.0,91,0.00,,,0.01,Wunderground v.1.15,2013-10-09 11:21:00,
2013-10-09 07:26:00,58.4,55.8,29.90,NNE,29,2.0,12.0,91,0.00,,,0.01,Wunderground v.1.15,2013-10-09 11:26:00,
2013-10-09 07:31:00,58.4,55.8,29.89,NNE,31,1.0,12.0,91,0.00,,,0.01,Wunderground v.1.15,2013-10-09 11:31:00,
2013-10-09 07:37:00,58.6,56.0,29.89,East,85,1.0,1.0,91,0.00,,,0.01,Wunderground v.1.15,2013-10-09 11:37:00,
2013-10-09 07:43:00,58.6,55.7,29.89,NE,46,1.0,1.0,90,0.00,,,0.01,Wunderground v.1.15,2013-10-09 11:43:00,
2013-10-09 07:50:00,58.7,55.8,29.89,ENE,61,2.0,3.0,90,0.00,,,0.01,Wunderground v.1.15,2013-10-09 11:50:00,
2013-10-09 07:56:00,58.7,55.8,29.89,NE,47,1.0,9.0,90,0.00,,,0.01,Wunderground v.1.15,2013-10-09 11:56:00,
2013-10-09 08:02:00,58.9,55.7,29.90,NNE,15,1.0,9.0,89,0.00,,,0.01,Wunderground v.1.15,2013-10-09 12:02:00,
2013-10-09 08:04:00,58.9,55.7,29.90,WNW,301,2.0,8.0,89,0.00,,,0.01,Wunderground v.1.15,2013-10-09 12:04:00,
2013-10-09 08:09:00,58.9,55.7,29.90,NE,51,1.0,9.0,89,0.00,,,0.01,Wunderground v.1.15,2013-10-09 12:09:00,
2013-10-09 08:14:00,58.9,55.7,29.90,NE,36,2.0,11.0,89,0.00,,,0.01,Wunderground v.1.15,2013-10-09 12:14:00,
2013-10-09 08:20:00,59.0,55.8,29.90,NNW,329,3.0,11.0,89,0.00,,,0.01,Wunderground v.1.15,2013-10-09 12:20:00,
2013-10-09 08:26:00,59.2,56.0,29.90,WNW,289,2.0,2.0,89,0.00,,,0.01,Wunderground v.1.15,2013-10-09 12:26:00,
2013-10-09 08:32:00,59.3,55.7,29.90,ENE,63,2.0,6.0,88,0.00,,,0.01,Wunderground v.1.15,2013-10-09 12:32:00,
2013-10-09 08:38:00,59.5,55.9,29.90,ESE,107,2.0,3.0,88,0.00,,,0.01,Wunderground v.1.15,2013-10-09 12:38:00,
2013-10-09 08:44:00,59.6,56.0,29.90,NNE,33,1.0,4.0,88,0.00,,,0.01,Wunderground v.1.15,2013-10-09 12:44:00,
2013-10-09 08:50:00,59.8,56.2,29.91,NE,36,2.0,4.0,88,0.00,,,0.01,Wunderground v.1.15,2013-10-09 12:50:00,
2013-10-09 08:56:00,59.8,55.9,29.91,NW,304,1.0,6.0,87,0.00,,,0.01,Wunderground v.1.15,2013-10-09 12:56:00,
2013-10-09 09:02:00,59.8,55.9,29.91,NE,51,1.0,6.0,87,0.00,,,0.01,Wunderground v.1.15,2013-10-09 13:02:00,
2013-10-09 09:08:00,59.9,56.3,29.91,East,88,1.0,6.0,88,0.00,,,0.01,Wunderground v.1.15,2013-10-09 13:08:00,
2013-10-09 09:14:00,60.2,56.3,29.91,ENE,65,1.0,6.0,87,0.00,,,0.01,Wunderground v.1.15,2013-10-09 13:14:00,
2013-10-09 09:19:00,60.5,56.6,29.91,ESE,111,1.0,6.0,87,0.00,,,0.01,Wunderground v.1.15,2013-10-09 13:19:00,
2013-10-09 09:25:00,61.2,57.0,29.91,ENE,73,1.0,5.0,86,0.00,,,0.01,Wunderground v.1.15,2013-10-09 13:25:00,
2013-10-09 09:31:00,61.6,56.7,29.91,NNW,338,2.0,5.0,84,0.00,,,0.01,Wunderground v.1.15,2013-10-09 13:31:00,
2013-10-09 09:37:00,62.0,57.1,29.91,NNW,328,1.0,5.0,84,0.00,,,0.01,Wunderground v.1.15,2013-10-09 13:37:00,
2013-10-09 09:43:00,62.1,56.9,29.91,NNE,28,2.0,2.0,83,0.00,,,0.01,Wunderground v.1.15,2013-10-09 13:43:00,
2013-10-09 09:48:00,62.6,57.4,29.91,ENE,58,1.0,7.0,83,0.00,,,0.01,Wunderground v.1.15,2013-10-09 13:48:00,
2013-10-09 09:53:00,62.7,57.1,29.91,NNW,340,1.0,3.0,82,0.00,,,0.01,Wunderground v.1.15,2013-10-09 13:53:00,
2013-10-09 09:59:00,62.6,57.0,29.91,NNE,20,2.0,4.0,82,0.00,,,0.01,Wunderground v.1.15,2013-10-09 13:59:00,
2013-10-09 10:05:00,62.6,57.0,29.92,WSW,250,2.0,5.0,82,0.00,,,0.01,Wunderground v.1.15,2013-10-09 14:05:00,
2013-10-09 10:10:00,62.6,57.0,29.92,NNW,332,2.0,5.0,82,0.00,,,0.01,Wunderground v.1.15,2013-10-09 14:10:00,
2013-10-09 10:15:00,62.6,57.0,29.92,NNE,17,1.0,3.0,82,0.00,,,0.01,Wunderground v.1.15,2013-10-09 14:15:00,
2013-10-09 10:21:00,62.7,57.1,29.92,North,360,1.0,10.0,82,0.00,,,0.01,Wunderground v.1.15,2013-10-09 14:21:00,
2013-10-09 10:27:00,62.9,57.3,29.92,North,5,2.0,2.0,82,0.00,,,0.01,Wunderground v.1.15,2013-10-09 14:27:00,
2013-10-09 10:33:00,63.2,57.6,29.92,NNW,343,2.0,2.0,82,0.00,,,0.01,Wunderground v.1.15,2013-10-09 14:33:00,
2013-10-09 10:39:00,63.4,57.8,29.92,NW,325,2.0,8.0,82,0.00,,,0.01,Wunderground v.1.15,2013-10-09 14:39:00,
2013-10-09 10:44:00,63.5,57.6,29.92,NE,42,2.0,3.0,81,0.00,,,0.01,Wunderground v.1.15,2013-10-09 14:44:00,
2013-10-09 10:49:00,64.0,58.1,29.92,East,94,2.0,3.0,81,0.00,,,0.01,Wunderground v.1.15,2013-10-09 14:49:00,
2013-10-09 10:55:00,64.5,58.5,29.92,NNE,28,2.0,2.0,81,0.00,,,0.01,Wunderground v.1.15,2013-10-09 14:55:00,
2013-10-09 11:00:00,65.0,58.7,29.92,NW,315,2.0,6.0,80,0.00,,,0.01,Wunderground v.1.15,2013-10-09 15:00:00,
2013-10-09 11:06:00,65.3,58.3,29.91,NNW,331,3.0,6.0,78,0.00,,,0.01,Wunderground v.1.15,2013-10-09 15:06:00,
2013-10-09 11:11:00,65.6,58.6,29.91,North,355,3.0,6.0,78,0.00,,,0.01,Wunderground v.1.15,2013-10-09 15:11:00,
2013-10-09 11:16:00,66.0,58.9,29.91,North,349,3.0,6.0,78,0.00,,,0.01,Wunderground v.1.15,2013-10-09 15:16:00,
2013-10-09 11:22:00,66.3,59.2,29.91,NNE,27,2.0,6.0,78,0.00,,,0.01,Wunderground v.1.15,2013-10-09 15:22:00,
2013-10-09 11:28:00,66.9,59.5,29.91,NNE,20,2.0,9.0,77,0.00,,,0.01,Wunderground v.1.15,2013-10-09 15:28:00,
2013-10-09 11:34:00,67.4,58.8,29.90,SE,127,3.0,3.0,74,0.00,,,0.01,Wunderground v.1.15,2013-10-09 15:34:00,
2013-10-09 11:40:00,67.8,59.2,29.90,NNW,327,3.0,3.0,74,0.00,,,0.01,Wunderground v.1.15,2013-10-09 15:40:00,
2013-10-09 11:46:00,67.6,59.0,29.90,NE,49,2.0,3.0,74,0.00,,,0.01,Wunderground v.1.15,2013-10-09 15:46:00,
2013-10-09 11:51:00,67.8,59.6,29.91,North,360,2.0,3.0,75,0.00,,,0.01,Wunderground v.1.15,2013-10-09 15:51:00,
2013-10-09 11:56:00,68.3,60.1,29.91,North,351,3.0,6.0,75,0.00,,,0.01,Wunderground v.1.15,2013-10-09 15:56:00,
2013-10-09 12:02:00,68.6,59.6,29.90,North,10,3.0,10.0,73,0.00,,,0.01,Wunderground v.1.15,2013-10-09 16:02:00,
2013-10-09 12:07:00,68.8,59.8,29.90,NW,311,2.0,3.0,73,0.00,,,0.01,Wunderground v.1.15,2013-10-09 16:07:00,
2013-10-09 12:12:00,68.9,59.9,29.90,NE,35,2.0,4.0,73,0.00,,,0.01,Wunderground v.1.15,2013-10-09 16:12:00,
2013-10-09 12:17:00,69.3,60.7,29.89,NNW,336,2.0,2.0,74,0.00,,,0.01,Wunderground v.1.15,2013-10-09 16:17:00,
2013-10-09 12:23:00,69.6,60.2,29.89,NW,323,1.0,1.0,72,0.00,,,0.01,Wunderground v.1.15,2013-10-09 16:23:00,
2013-10-09 12:28:00,69.6,60.2,29.89,North,10,1.0,2.0,72,0.00,,,0.01,Wunderground v.1.15,2013-10-09 16:28:00,
2013-10-09 12:33:00,69.8,60.4,29.89,NNW,343,1.0,1.0,72,0.00,,,0.01,Wunderground v.1.15,2013-10-09 16:33:00,
2013-10-09 12:39:00,69.8,60.4,29.89,NNE,22,2.0,6.0,72,0.00,,,0.01,Wunderground v.1.15,2013-10-09 16:39:00,
2013-10-09 12:44:00,69.6,60.2,29.89,NNW,327,1.0,1.0,72,0.00,,,0.01,Wunderground v.1.15,2013-10-09 16:44:00,
2013-10-09 12:50:00,70.3,61.6,29.89,NE,34,1.0,3.0,74,0.00,,,0.01,Wunderground v.1.15,2013-10-09 16:50:00,
2013-10-09 12:56:00,71.6,61.3,29.89,NNW,346,2.0,5.0,70,0.00,,,0.01,Wunderground v.1.15,2013-10-09 16:56:00,
2013-10-09 13:02:00,72.3,61.1,29.89,SSW,205,3.0,6.0,68,0.00,,,0.01,Wunderground v.1.15,2013-10-09 17:02:00,
2013-10-09 13:08:00,72.8,60.8,29.89,SE,139,3.0,4.0,66,0.00,,,0.01,Wunderground v.1.15,2013-10-09 17:08:00,
2013-10-09 13:14:00,73.0,61.4,29.89,NNW,336,3.0,6.0,67,0.00,,,0.01,Wunderground v.1.15,2013-10-09 17:14:00,
2013-10-09 13:19:00,73.3,61.3,29.88,South,180,3.0,6.0,66,0.00,,,0.01,Wunderground v.1.15,2013-10-09 17:19:00,
2013-10-09 13:24:00,73.5,61.4,29.88,NE,36,2.0,3.0,66,0.00,,,0.01,Wunderground v.1.15,2013-10-09 17:24:00,
2013-10-09 13:30:00,73.5,61.0,29.88,NNE,20,3.0,4.0,65,0.00,,,0.01,Wunderground v.1.15,2013-10-09 17:30:00,
2013-10-09 13:35:00,73.9,61.4,29.87,NW,322,3.0,3.0,65,0.00,,,0.01,Wunderground v.1.15,2013-10-09 17:35:00,
2013-10-09 13:40:00,74.0,61.9,29.87,East,80,2.0,4.0,66,0.00,,,0.01,Wunderground v.1.15,2013-10-09 17:40:00,
2013-10-09 13:45:00,74.2,61.7,29.87,SE,126,2.0,3.0,65,0.00,,,0.01,Wunderground v.1.15,2013-10-09 17:45:00,
2013-10-09 13:51:00,74.4,61.9,29.87,NNW,341,3.0,6.0,65,0.00,,,0.01,Wunderground v.1.15,2013-10-09 17:51:00,
2013-10-09 13:56:00,74.6,62.1,29.87,NNE,16,2.0,3.0,65,0.00,,,0.01,Wunderground v.1.15,2013-10-09 17:56:00,
2013-10-09 14:01:00,74.7,62.6,29.87,NE,53,2.0,7.0,66,0.00,,,0.01,Wunderground v.1.15,2013-10-09 18:01:00,
2013-10-09 14:06:00,75.1,62.1,29.87,East,83,1.0,2.0,64,0.00,,,0.01,Wunderground v.1.15,2013-10-09 18:06:00,
2013-10-09 14:11:00,75.4,61.9,29.87,NNW,339,1.0,3.0,63,0.00,,,0.01,Wunderground v.1.15,2013-10-09 18:11:00,
2013-10-09 14:16:00,75.4,62.4,29.87,NNW,335,2.0,11.0,64,0.00,,,0.01,Wunderground v.1.15,2013-10-09 18:16:00,
2013-10-09 14:21:00,75.3,62.3,29.87,North,355,4.0,11.0,64,0.00,,,0.01,Wunderground v.1.15,2013-10-09 18:21:00,
2013-10-09 14:26:00,74.9,61.5,29.87,WSW,254,4.0,9.0,63,0.00,,,0.01,Wunderground v.1.15,2013-10-09 18:26:00,
2013-10-09 14:31:00,74.2,61.2,29.87,NNE,20,4.0,14.0,64,0.00,,,0.01,Wunderground v.1.15,2013-10-09 18:31:00,
2013-10-09 14:37:00,73.3,59.9,29.87,East,86,3.0,10.0,63,0.00,,,0.01,Wunderground v.1.15,2013-10-09 18:37:00,
2013-10-09 14:43:00,73.2,62.0,29.87,West,273,3.0,3.0,68,0.00,,,0.01,Wunderground v.1.15,2013-10-09 18:43:00,
2013-10-09 14:48:00,73.0,61.4,29.87,NNW,340,3.0,3.0,67,0.00,,,0.01,Wunderground v.1.15,2013-10-09 18:48:00,
2013-10-09 14:54:00,72.5,61.7,29.87,WNW,292,3.0,4.0,69,0.00,,,0.01,Wunderground v.1.15,2013-10-09 18:54:00,
2013-10-09 15:00:00,72.3,62.4,29.87,South,182,3.0,4.0,71,0.00,,,0.01,Wunderground v.1.15,2013-10-09 19:00:00,
2013-10-09 15:06:00,72.1,62.2,29.87,WNW,299,2.0,6.0,71,0.00,,,0.01,Wunderground v.1.15,2013-10-09 19:06:00,
2013-10-09 15:11:00,71.5,61.2,29.87,SSW,206,2.0,7.0,70,0.00,,,0.01,Wunderground v.1.15,2013-10-09 19:11:00,
2013-10-09 15:17:00,70.6,60.7,29.87,NNW,327,3.0,10.0,71,0.00,,,0.01,Wunderground v.1.15,2013-10-09 19:17:00,
2013-10-09 15:22:00,70.3,60.8,29.87,NE,40,2.0,10.0,72,0.00,,,0.01,Wunderground v.1.15,2013-10-09 19:22:00,
2013-10-09 15:28:00,70.3,60.8,29.87,WNW,297,3.0,9.0,72,0.00,,,0.01,Wunderground v.1.15,2013-10-09 19:28:00,
2013-10-09 15:33:00,70.6,60.7,29.87,NNE,24,3.0,7.0,71,0.00,,,0.01,Wunderground v.1.15,2013-10-09 19:33:00,
2013-10-09 15:38:00,70.8,60.5,29.87,NE,48,3.0,7.0,70,0.00,,,0.01,Wunderground v.1.15,2013-10-09 19:38:00,
2013-10-09 15:43:00,70.4,60.5,29.87,WNW,294,3.0,3.0,71,0.00,,,0.01,Wunderground v.1.15,2013-10-09 19:43:00,
2013-10-09 15:48:00,69.9,60.1,29.87,North,360,3.0,4.0,71,0.00,,,0.01,Wunderground v.1.15,2013-10-09 19:48:00,
2013-10-09 15:54:00,69.6,60.2,29.87,North,355,3.0,3.0,72,0.00,,,0.01,Wunderground v.1.15,2013-10-09 19:54:00,
2013-10-09 16:00:00,69.6,60.2,29.87,NNW,333,3.0,4.0,72,0.00,,,0.01,Wunderground v.1.15,2013-10-09 20:00:00,
2013-10-09 16:06:00,70.3,60.8,29.86,NE,47,2.0,3.0,72,0.00,,,0.01,Wunderground v.1.15,2013-10-09 20:06:00,
2013-10-09 16:11:00,70.4,60.5,29.86,ENE,57,2.0,5.0,71,0.00,,,0.01,Wunderground v.1.15,2013-10-09 20:11:00,
2013-10-09 16:17:00,70.1,60.7,29.87,East,96,3.0,11.0,72,0.00,,,0.01,Wunderground v.1.15,2013-10-09 20:17:00,
2013-10-09 16:23:00,69.9,60.5,29.87,East,85,3.0,3.0,72,0.00,,,0.01,Wunderground v.1.15,2013-10-09 20:23:00,
2013-10-09 16:28:00,69.8,60.8,29.87,NE,34,2.0,3.0,73,0.00,,,0.01,Wunderground v.1.15,2013-10-09 20:28:00,
2013-10-09 16:34:00,69.4,60.4,29.86,ENE,60,2.0,6.0,73,0.00,,,0.01,Wunderground v.1.15,2013-10-09 20:34:00,
2013-10-09 16:40:00,69.3,60.7,29.86,North,5,2.0,6.0,74,0.00,,,0.01,Wunderground v.1.15,2013-10-09 20:40:00,
2013-10-09 16:46:00,69.1,60.5,29.86,NE,45,1.0,2.0,74,0.00,,,0.01,Wunderground v.1.15,2013-10-09 20:46:00,
2013-10-09 16:52:00,69.1,60.5,29.86,NNW,342,2.0,4.0,74,0.00,,,0.01,Wunderground v.1.15,2013-10-09 20:52:00,
2013-10-09 16:57:00,68.9,60.6,29.86,North,5,2.0,3.0,75,0.00,,,0.01,Wunderground v.1.15,2013-10-09 20:57:00,
2013-10-09 17:02:00,68.8,60.6,29.86,NNW,346,1.0,3.0,75,0.00,,,0.01,Wunderground v.1.15,2013-10-09 21:02:00,
2013-10-09 17:08:00,68.8,60.9,29.86,NNW,331,1.0,3.0,76,0.00,,,0.01,Wunderground v.1.15,2013-10-09 21:08:00,
2013-10-09 17:14:00,68.6,60.7,29.86,North,5,1.0,1.0,76,0.00,,,0.01,Wunderground v.1.15,2013-10-09 21:14:00,
2013-10-09 17:19:00,68.4,60.5,29.86,North,5,1.0,2.0,76,0.00,,,0.01,Wunderground v.1.15,2013-10-09 21:19:00,
2013-10-09 17:25:00,68.3,60.1,29.86,NE,55,2.0,5.0,75,0.00,,,0.01,Wunderground v.1.15,2013-10-09 21:25:00,
2013-10-09 17:31:00,68.1,59.9,29.87,NNW,348,2.0,5.0,75,0.00,,,0.01,Wunderground v.1.15,2013-10-09 21:31:00,
2013-10-09 17:37:00,67.9,59.7,29.87,NNW,336,1.0,2.0,75,0.00,,,0.01,Wunderground v.1.15,2013-10-09 21:37:00,
2013-10-09 17:43:00,67.8,59.6,29.87,NNW,336,1.0,3.0,75,0.00,,,0.01,Wunderground v.1.15,2013-10-09 21:43:00,
2013-10-09 17:49:00,67.6,59.4,29.87,NNE,12,1.0,3.0,75,0.00,,,0.01,Wunderground v.1.15,2013-10-09 21:49:00,
2013-10-09 17:54:00,67.4,59.2,29.87,ENE,67,1.0,1.0,75,0.00,,,0.01,Wunderground v.1.15,2013-10-09 21:54:00,
2013-10-09 18:00:00,67.3,59.1,29.87,North,9,1.0,4.0,75,0.00,,,0.01,Wunderground v.1.15,2013-10-09 22:00:00,
2013-10-09 18:05:00,67.1,58.9,29.87,North,355,2.0,5.0,75,0.00,,,0.01,Wunderground v.1.15,2013-10-09 22:05:00,
2013-10-09 18:10:00,66.9,59.1,29.87,NW,307,2.0,5.0,76,0.00,,,0.01,Wunderground v.1.15,2013-10-09 22:10:00,
2013-10-09 18:15:00,66.6,58.4,29.87,North,351,2.0,4.0,75,0.00,,,0.01,Wunderground v.1.15,2013-10-09 22:15:00,
2013-10-09 18:20:00,66.3,58.1,29.87,NNE,14,3.0,4.0,75,0.00,,,0.01,Wunderground v.1.15,2013-10-09 22:20:00,
2013-10-09 18:26:00,66.0,58.2,29.87,NNE,23,2.0,4.0,76,0.00,,,0.01,Wunderground v.1.15,2013-10-09 22:26:00,
2013-10-09 18:32:00,65.6,57.8,29.87,NNE,21,2.0,4.0,76,0.00,,,0.01,Wunderground v.1.15,2013-10-09 22:32:00,
2013-10-09 18:38:00,65.5,58.1,29.87,North,5,2.0,2.0,77,0.00,,,0.01,Wunderground v.1.15,2013-10-09 22:38:00,
2013-10-09 18:43:00,65.3,57.9,29.87,North,5,1.0,1.0,77,0.00,,,0.01,Wunderground v.1.15,2013-10-09 22:43:00,
2013-10-09 18:48:00,65.2,57.8,29.87,NNE,13,1.0,3.0,77,0.00,,,0.01,Wunderground v.1.15,2013-10-09 22:48:00,
2013-10-09 18:54:00,65.2,58.2,29.87,NNE,13,2.0,3.0,78,0.00,,,0.01,Wunderground v.1.15,2013-10-09 22:54:00,
2013-10-09 18:59:00,65.0,58.0,29.87,North,355,2.0,3.0,78,0.00,,,0.01,Wunderground v.1.15,2013-10-09 22:59:00,
2013-10-09 19:04:00,64.8,57.8,29.87,North,355,2.0,2.0,78,0.00,,,0.01,Wunderground v.1.15,2013-10-09 23:04:00,
2013-10-09 19:09:00,64.8,57.8,29.87,ESE,115,2.0,3.0,78,0.00,,,0.01,Wunderground v.1.15,2013-10-09 23:09:00,
2013-10-09 19:14:00,64.8,57.8,29.87,ENE,58,2.0,3.0,78,0.00,,,0.01,Wunderground v.1.15,2013-10-09 23:14:00,
2013-10-09 19:20:00,64.7,57.7,29.87,North,355,2.0,3.0,78,0.00,,,0.01,Wunderground v.1.15,2013-10-09 23:20:00,
2013-10-09 19:25:00,64.7,57.7,29.87,NE,51,2.0,5.0,78,0.00,,,0.01,Wunderground v.1.15,2013-10-09 23:25:00,
2013-10-09 19:31:00,64.5,57.5,29.87,NNE,22,2.0,5.0,78,0.00,,,0.01,Wunderground v.1.15,2013-10-09 23:31:00,
2013-10-09 19:36:00,64.5,57.5,29.87,NE,34,1.0,2.0,78,0.00,,,0.01,Wunderground v.1.15,2013-10-09 23:36:00,
2013-10-09 19:41:00,64.5,57.5,29.87,NNE,21,2.0,3.0,78,0.00,,,0.01,Wunderground v.1.15,2013-10-09 23:41:00,
2013-10-09 19:47:00,64.5,57.5,29.87,NW,320,2.0,2.0,78,0.00,,,0.01,Wunderground v.1.15,2013-10-09 23:47:00,
2013-10-09 19:52:00,64.5,57.5,29.87,NNW,338,1.0,3.0,78,0.00,,,0.01,Wunderground v.1.15,2013-10-09 23:52:00,
2013-10-09 19:58:00,64.3,57.6,29.87,ENE,57,1.0,3.0,79,0.00,,,0.01,Wunderground v.1.15,2013-10-09 23:58:00,
2013-10-09 20:03:00,64.3,57.3,29.87,NNE,14,2.0,2.0,78,0.00,,,0.01,Wunderground v.1.15,2013-10-10 00:03:00,
2013-10-09 20:08:00,64.3,57.3,29.87,North,355,1.0,4.0,78,0.00,,,0.01,Wunderground v.1.15,2013-10-10 00:08:00,
2013-10-09 20:14:00,64.3,57.6,29.87,NW,325,1.0,1.0,79,0.00,,,0.01,Wunderground v.1.15,2013-10-10 00:14:00,
2013-10-09 20:20:00,64.3,57.6,29.87,NNE,32,1.0,3.0,79,0.00,,,0.01,Wunderground v.1.15,2013-10-10 00:20:00,
2013-10-09 20:26:00,64.2,57.5,29.87,ENE,66,1.0,3.0,79,0.00,,,0.01,Wunderground v.1.15,2013-10-10 00:26:00,
2013-10-09 20:32:00,64.2,57.5,29.87,NW,315,1.0,3.0,79,0.00,,,0.01,Wunderground v.1.15,2013-10-10 00:32:00,
2013-10-09 20:38:00,64.0,57.4,29.87,North,355,2.0,4.0,79,0.00,,,0.01,Wunderground v.1.15,2013-10-10 00:38:00,
2013-10-09 20:43:00,64.0,57.4,29.87,NE,43,1.0,1.0,79,0.00,,,0.01,Wunderground v.1.15,2013-10-10 00:43:00,
2013-10-09 20:48:00,63.9,57.3,29.87,NNE,12,1.0,2.0,79,0.00,,,0.01,Wunderground v.1.15,2013-10-10 00:48:00,
2013-10-09 20:54:00,63.9,57.3,29.87,North,11,1.0,1.0,79,0.00,,,0.01,Wunderground v.1.15,2013-10-10 00:54:00,
2013-10-09 20:59:00,63.7,57.1,29.87,NNE,30,1.0,3.0,79,0.00,,,0.01,Wunderground v.1.15,2013-10-10 00:59:00,
2013-10-09 21:04:00,63.5,56.9,29.88,North,355,2.0,9.0,79,0.00,,,0.01,Wunderground v.1.15,2013-10-10 01:04:00,
2013-10-09 21:09:00,63.5,56.9,29.88,North,5,1.0,9.0,79,0.00,,,0.01,Wunderground v.1.15,2013-10-10 01:09:00,
2013-10-09 21:15:00,63.4,56.8,29.88,North,5,0.0,1.0,79,0.00,,,0.01,Wunderground v.1.15,2013-10-10 01:15:00,
2013-10-09 21:20:00,63.4,56.8,29.87,North,5,1.0,3.0,79,0.00,,,0.01,Wunderground v.1.15,2013-10-10 01:20:00,
2013-10-09 21:26:00,63.2,56.6,29.87,North,349,1.0,1.0,79,0.00,,,0.01,Wunderground v.1.15,2013-10-10 01:26:00,
2013-10-09 21:32:00,63.2,56.6,29.88,North,355,1.0,5.0,79,0.00,,,0.01,Wunderground v.1.15,2013-10-10 01:32:00,
2013-10-09 21:37:00,63.1,56.8,29.88,NNE,25,1.0,2.0,80,0.00,,,0.01,Wunderground v.1.15,2013-10-10 01:37:00,
2013-10-09 21:42:00,63.1,56.8,29.88,North,5,1.0,2.0,80,0.00,,,0.01,Wunderground v.1.15,2013-10-10 01:42:00,
2013-10-09 21:47:00,63.1,56.8,29.88,NNW,333,1.0,5.0,80,0.00,,,0.01,Wunderground v.1.15,2013-10-10 01:47:00,
2013-10-09 21:52:00,63.1,56.8,29.88,NE,48,1.0,5.0,80,0.00,,,0.01,Wunderground v.1.15,2013-10-10 01:52:00,
2013-10-09 21:58:00,63.1,56.8,29.88,NNW,345,1.0,3.0,80,0.00,,,0.01,Wunderground v.1.15,2013-10-10 01:58:00,
2013-10-09 22:04:00,62.9,56.6,29.88,NW,310,1.0,1.0,80,0.00,,,0.01,Wunderground v.1.15,2013-10-10 02:04:00,
2013-10-09 22:09:00,62.9,57.0,29.88,NW,310,1.0,1.0,81,0.00,,,0.01,Wunderground v.1.15,2013-10-10 02:09:00,
2013-10-09 22:14:00,62.9,57.0,29.88,NW,309,0.0,1.0,81,0.00,,,0.01,Wunderground v.1.15,2013-10-10 02:14:00,
2013-10-09 22:20:00,62.7,56.8,29.88,NE,38,1.0,4.0,81,0.00,,,0.01,Wunderground v.1.15,2013-10-10 02:20:00,
2013-10-09 22:25:00,62.7,56.8,29.88,ENE,76,1.0,2.0,81,0.00,,,0.01,Wunderground v.1.15,2013-10-10 02:25:00,
2013-10-09 22:30:00,62.6,56.3,29.88,WSW,244,1.0,2.0,80,0.00,,,0.01,Wunderground v.1.15,2013-10-10 02:30:00,
2013-10-09 22:35:00,62.6,56.3,29.88,NNE,28,1.0,1.0,80,0.00,,,0.01,Wunderground v.1.15,2013-10-10 02:35:00,
2013-10-09 22:41:00,62.4,56.1,29.88,NE,55,1.0,1.0,80,0.00,,,0.01,Wunderground v.1.15,2013-10-10 02:41:00,
2013-10-09 22:46:00,62.4,56.1,29.88,ESE,123,1.0,4.0,80,0.00,,,0.01,Wunderground v.1.15,2013-10-10 02:46:00,
2013-10-09 22:51:00,62.4,56.5,29.88,NW,304,1.0,5.0,81,0.00,,,0.01,Wunderground v.1.15,2013-10-10 02:51:00,
2013-10-09 22:57:00,62.4,56.1,29.88,NNW,348,1.0,1.0,80,0.00,,,0.01,Wunderground v.1.15,2013-10-10 02:57:00,
2013-10-09 23:03:00,62.3,56.0,29.88,NE,38,0.0,0.0,80,0.00,,,0.01,Wunderground v.1.15,2013-10-10 03:03:00,
2013-10-09 23:08:00,62.3,56.0,29.88,NNW,332,0.0,2.0,80,0.00,,,0.01,Wunderground v.1.15,2013-10-10 03:08:00,
2013-10-09 23:14:00,62.3,56.4,29.88,North,5,1.0,3.0,81,0.00,,,0.01,Wunderground v.1.15,2013-10-10 03:14:00,
2013-10-09 23:20:00,62.1,55.9,29.87,NNE,14,1.0,6.0,80,0.00,,,0.01,Wunderground v.1.15,2013-10-10 03:20:00,
2013-10-09 23:25:00,62.1,55.9,29.87,North,5,1.0,1.0,80,0.00,,,0.01,Wunderground v.1.15,2013-10-10 03:25:00,
2013-10-09 23:30:00,62.1,55.9,29.87,ENE,59,1.0,2.0,80,0.00,,,0.01,Wunderground v.1.15,2013-10-10 03:30:00,
2013-10-09 23:35:00,62.0,55.8,29.87,North,9,2.0,3.0,80,0.00,,,0.01,Wunderground v.1.15,2013-10-10 03:35:00,
2013-10-09 23:40:00,62.0,55.8,29.87,NNE,22,2.0,3.0,80,0.00,,,0.01,Wunderground v.1.15,2013-10-10 03:40:00,
2013-10-09 23:46:00,62.0,55.8,29.87,NE,46,1.0,3.0,80,0.00,,,0.01,Wunderground v.1.15,2013-10-10 03:46:00,
2013-10-09 23:51:00,62.0,55.8,29.87,NE,55,1.0,3.0,80,0.00,,,0.01,Wunderground v.1.15,2013-10-10 03:51:00,
2013-10-09 23:56:00,62.0,56.1,29.87,North,355,1.0,1.0,81,0.00,,,0.01,Wunderground v.1.15,2013-10-10 03:56:00,